This demonstration page uses our WeatherBlox Daily Observations layout. Learn more.

Left ArrowRight Arrow

38.83388, -104.82136

Hourly Observations for August 21, 2022

Temp ( °F °C ) Dew Point ( °F °C ) Humidity (%) Winds ( mph kmh ) Pressure ( in mb ) Visibility ( mi km ) Precip ( " mm )
12:58 am 00:58 Clear 61 16.2 46 7.7 57 57 S 14 22 29.57 1001 10 16 0.00 0.00
1:58 am 01:58 Clear 59 15.1 46 7.6 61 61 SE 6 9 29.52 1000 10 16 0.00 0.00
2:58 am 02:58 Clear 56 13.2 47 8.3 72 72 SSW 5 7 29.44 997 10 16 0.00 0.00
3:58 am 03:58 Clear 55 12.6 47 8.3 75 75 Calm 29.45 997 10 16 0.00 0.00
4:58 am 04:58 Mostly Cloudy 55 12.7 46 8 73 73 SSE 3 6 29.50 999 10 16 0.00 0.00
5:58 am 05:58 Clear 54 12.3 47 8.6 78 78 Calm 29.52 1000 10 16 0.00 0.00
6:58 am 06:58 Cloudy 56 13.4 49 9.3 76 76 SE 7 11 29.59 1002 10 16 0.00 0.00
7:58 am 07:58 Sunny 59 14.9 51 10.7 76 76 ESE 6 9 29.68 1005 10 16 0.00 0.00
8:58 am 08:58 Sunny 62 16.4 54 12.2 76 76 SE 7 11 29.76 1008 10 16 0.00 0.00
9:58 am 09:58 Sunny 64 17.8 54 12.2 70 70 ESE 9 15 29.76 1008 8 13 0.00 0.00
10:58 am 10:58 Sunny 68 19.8 54 12.1 61 61 SSE 15 24 29.77 1008 10 16 0.00 0.00
11:58 am 11:58 Partly Cloudy 68 20.1 52 11 56 56 SSE 13 20 29.77 1008 10 16 0.00 0.00
12:58 pm 12:58 Mostly Cloudy 67 19.7 50 10.1 54 54 SSE 10 17 29.74 1007 9 14 0.00 0.00
1:58 pm 13:58 Mostly Cloudy 68 20.2 49 9.4 50 50 SSE 14 22 29.75 1008 10 16 0.00 0.00
2:58 pm 14:58 Mostly Cloudy 69 20.6 50 9.8 50 50 SSE 15 24 29.77 1008 10 16 0.00 0.00
3:58 pm 15:58 Mostly Cloudy 68 20.1 50 9.9 52 52 SSE 15 24 29.74 1007 10 16 0.00 0.00
4:58 pm 16:58 Cloudy 67 19.5 50 9.9 54 54 SSE 13 20 29.69 1005 10 16 0.00 0.00
5:30 pm 17:30 Cloudy with Light Rain 66 19 50 10 56 56 SSE 8 13 29.67 1005 10 16 0.00 0.00
5:58 pm 17:58 Cloudy with Rain 61 16.2 54 12.2 77 77 W 14 22 29.52 1000 4 6 0.12 3.05
6:49 pm 18:49 Cloudy 63 17 54 12 72 72 SSW 8 13 29.53 1000 10 16 0.00 0.00
6:58 pm 18:58 Cloudy 63 17.3 52 11.3 68 68 SSW 6 9 29.55 1001 10 16 0.06 1.52
7:58 pm 19:58 Cloudy 63 17.2 52 11.2 68 68 SSW 9 15 29.58 1002 10 16 0.00 0.00
8:58 pm 20:58 Cloudy 62 16.9 51 10.7 67 67 SSW 8 13 29.57 1001 10 16 0.00 0.00
9:58 pm 21:58 Cloudy 62 16.6 51 10.7 68 68 S 9 15 29.58 1002 10 16 0.00 0.00
10:58 pm 22:58 Mostly Cloudy 62 16.5 51 10.8 69 69 S 9 15 29.57 1001 10 16 0.00 0.00
11:56 pm 23:56 Cloudy 61 16.3 51 10.8 70 70 S 7 11 29.57 1001 10 16 0.00 0.00

Powered by AerisWeather